Location: Cicognara
(44.9500°N, 10.4667°E)
Time: 22:58:16
(UTC+00:00)

Cosmos 1908 - Pass Details

Date: 20 June 2021
Orbit: 509 x 530 km, 82.5° (Epoch: 23 July)

Event Time Altitude Azimuth Distance (km) Brightness Sun altitude
Rises 19:50:31 0° 357° (N) 2,667 7.6 -6.6°
Reaches altitude 10° 19:52:46 10° 5° (N) 1,770 6.5 -6.9°
Maximum altitude 19:56:28 42° 77° (ENE) 758 3.8 -7.4°
Drops below altitude 10° 20:00:06 10° 149° (SSE) 1,743 5.2 -7.9°
Enters shadow 20:00:13 - 150° (SSE) 1,785 5.3 -7.9°
